When you browse on this site, cookies collect data to enhance your experience and personalize the content and advertising you see.
Visit our Privacy Policy to learn more. By continuing to use the site, you agree to this use of cookies and data.
  • In France
  • List of Countries
  • For 7 days
  • Water Temperature
  • Satellite Maps
  • Weather Map
  • Weather Widgets
  • user-avatar
    Login

    Hourly Weather Harada

    Today, 14 December, Friday

    Time Temperature Precipitation Wind Pressure Humidity
    00:00 -9°C° 0 mm 2 mps 600 mmHg 63%
    01:00 -9°C° 0 mm 2 mps 600 mmHg 63%
    02:00 -10°C° 0 mm 2 mps 600 mmHg 62%
    03:00 -10°C° 0 mm 2 mps 600 mmHg 60%
    04:00 -10°C° 0 mm 2 mps 600 mmHg 62%
    05:00 -10°C° 0 mm 2 mps 600 mmHg 64%
    06:00 -10°C° 0 mm 2 mps 600 mmHg 66%
    07:00 -9°C° 0 mm 2 mps 601 mmHg 66%
    08:00 -8°C° 0 mm 2 mps 601 mmHg 66%
    09:00 -7°C° 0 mm 2 mps 602 mmHg 67%
    10:00 -7°C° 0 mm 2 mps 602 mmHg 65%
    11:00 -7°C° 0 mm 3 mps 602 mmHg 63%
    12:00 -6°C° 0 mm 3 mps 603 mmHg 62%
    13:00 -5°C° 0 mm 2 mps 602 mmHg 63%
    14:00 -6°C° 0 mm 2 mps 602 mmHg 63%
    15:00 -6°C° 0 mm 2 mps 602 mmHg 64%
    16:00 -7°C° 0 mm 2 mps 602 mmHg 66%
    17:00 -8°C° 0 mm 2 mps 602 mmHg 68%
    18:00 -9°C° 0 mm 2 mps 602 mmHg 70%
    19:00 -9°C° 0 mm 2 mps 601 mmHg 69%
    20:00 -10°C° 0 mm 2 mps 601 mmHg 69%
    21:00 -10°C° 0 mm 2 mps 601 mmHg 68%
    22:00 -10°C° 0 mm 2 mps 601 mmHg 68%
    23:00 -10°C° 0 mm 2 mps 601 mmHg 68%

    Tomorrow, 15 December, Saturday

    Time Temperature Precipitation Wind Pressure Humidity
    00:00 -10°C° 0 mm 2 mps 601 mmHg 68%
    01:00 -10°C° 0 mm 2 mps 601 mmHg 68%
    02:00 -10°C° 0 mm 2 mps 601 mmHg 69%
    03:00 -10°C° 0 mm 2 mps 601 mmHg 69%
    04:00 -10°C° 0 mm 2 mps 601 mmHg 69%
    05:00 -10°C° 0 mm 2 mps 601 mmHg 69%
    06:00 -10°C° 0 mm 2 mps 601 mmHg 69%
    07:00 -9°C° 0 mm 2 mps 602 mmHg 67%
    08:00 -8°C° 0 mm 2 mps 603 mmHg 66%
    09:00 -7°C° 0 mm 2 mps 603 mmHg 64%
    10:00 -6°C° 0 mm 2 mps 604 mmHg 62%
    11:00 -5°C° 0 mm 2 mps 604 mmHg 60%
    12:00 -3°C° 0 mm 2 mps 604 mmHg 58%
    13:00 -3°C° 0 mm 2 mps 604 mmHg 59%
    14:00 -3°C° 0 mm 2 mps 604 mmHg 61%
    15:00 -1°C° 0 mm 1 mps 604 mmHg 63%
    16:00 -4°C° 0 mm 2 mps 603 mmHg 66%
    17:00 -5°C° 0 mm 2 mps 603 mmHg 68%
    18:00 -7°C° 0 mm 2 mps 603 mmHg 71%
    19:00 -6°C° 0 mm 2 mps 603 mmHg 71%
    20:00 -6°C° 0 mm 2 mps 603 mmHg 71%
    21:00 -6°C° 0 mm 2 mps 602 mmHg 72%
    22:00 -6°C° 0 mm 2 mps 602 mmHg 72%
    23:00 -6°C° 0 mm 2 mps 602 mmHg 73%

    Day after tomorrow, 16 December, Sunday

    Time Temperature Precipitation Wind Pressure Humidity
    00:00 -6°C° 0 mm 2 mps 602 mmHg 74%
    01:00 -6°C° 0 mm 2 mps 602 mmHg 75%
    02:00 -6°C° 0 mm 2 mps 602 mmHg 76%
    03:00 -5°C° 0 mm 2 mps 603 mmHg 77%
    04:00 -5°C° 0.1 mm 2 mps 603 mmHg 78%
    05:00 -3°C° 0.1 mm 1 mps 603 mmHg 79%
    06:00 -3°C° 0.1 mm 1 mps 603 mmHg 80%
    07:00 -3°C° 0.1 mm 1 mps 603 mmHg 79%
    08:00 -2°C° 0.1 mm 1 mps 604 mmHg 78%
    09:00 -2°C° 0.1 mm 1 mps 604 mmHg 77%
    10:00 -1°C° 0.1 mm 1 mps 604 mmHg 75%
    11:00 0°C° 0.1 mm 1 mps 604 mmHg 72%
    12:00 +1°C° 0.1 mm 1 mps 605 mmHg 69%
    13:00 +1°C° 0 mm 1 mps 605 mmHg 70%
    14:00 +1°C° 0 mm 1 mps 605 mmHg 71%
    15:00 +1°C° 0 mm 1 mps 605 mmHg 72%
    16:00 -1°C° 0 mm 1 mps 604 mmHg 75%
    17:00 -2°C° 0 mm 1 mps 604 mmHg 78%
    18:00 -3°C° 0 mm 1 mps 604 mmHg 81%
    19:00 -3°C° 0 mm 1 mps 604 mmHg 81%
    20:00 -5°C° 0 mm 2 mps 604 mmHg 80%
    21:00 -5°C° 0 mm 2 mps 604 mmHg 80%
    22:00 -5°C° 0 mm 2 mps 604 mmHg 80%
    23:00 -5°C° 0 mm 2 mps 604 mmHg 81%

    17 December, Monday

    Time Temperature Precipitation Wind Pressure Humidity
    00:00 -5°C° 0 mm 2 mps 604 mmHg 81%
    01:00 -6°C° 0 mm 2 mps 604 mmHg 80%
    02:00 -6°C° 0 mm 2 mps 604 mmHg 79%
    03:00 -6°C° 0 mm 2 mps 604 mmHg 79%
    04:00 -6°C° 0 mm 2 mps 603 mmHg 78%
    05:00 -6°C° 0 mm 2 mps 603 mmHg 77%
    06:00 -7°C° 0 mm 2 mps 603 mmHg 77%
    07:00 -6°C° 0 mm 2 mps 603 mmHg 76%
    08:00 -5°C° 0 mm 2 mps 604 mmHg 75%
    09:00 -4°C° 0 mm 2 mps 604 mmHg 74%
    10:00 -3°C° 0 mm 2 mps 604 mmHg 73%
    11:00 -3°C° 0 mm 2 mps 604 mmHg 72%
    12:00 -2°C° 0 mm 2 mps 604 mmHg 71%
    13:00 -2°C° 0 mm 2 mps 604 mmHg 72%
    14:00 -2°C° 0 mm 2 mps 604 mmHg 74%
    15:00 0°C° 0 mm 1 mps 603 mmHg 75%
    16:00 -2°C° 0 mm 1 mps 603 mmHg 75%
    17:00 -5°C° 0 mm 2 mps 602 mmHg 76%
    18:00 -6°C° 0 mm 2 mps 602 mmHg 77%
    19:00 -6°C° 0 mm 2 mps 602 mmHg 75%
    20:00 -6°C° 0 mm 2 mps 602 mmHg 73%
    21:00 -6°C° 0 mm 2 mps 602 mmHg 71%
    22:00 -6°C° 0 mm 2 mps 602 mmHg 71%
    23:00 -6°C° 0 mm 2 mps 602 mmHg 72%

    18 December, Tuesday

    Time Temperature Precipitation Wind Pressure Humidity
    00:00 -7°C° 0 mm 2 mps 602 mmHg 73%
    01:00 -6°C° 0 mm 2 mps 602 mmHg 73%
    02:00 -6°C° 0 mm 2 mps 601 mmHg 72%
    03:00 -4°C° 0 mm 1 mps 601 mmHg 72%
    04:00 -4°C° 0.1 mm 1 mps 601 mmHg 73%
    05:00 -4°C° 0.1 mm 1 mps 602 mmHg 74%
    06:00 -3°C° 0.1 mm 1 mps 602 mmHg 75%
    07:00 -3°C° 0.1 mm 1 mps 602 mmHg 75%
    08:00 -4°C° 0.1 mm 0 mps 602 mmHg 76%
    09:00 -3°C° 0.1 mm 0 mps 602 mmHg 77%
    10:00 -2°C° 0.2 mm 1 mps 602 mmHg 77%
    11:00 -2°C° 0.2 mm 1 mps 602 mmHg 76%
    12:00 -1°C° 0.2 mm 1 mps 602 mmHg 75%
    13:00 -1°C° 0.2 mm 1 mps 602 mmHg 77%
    14:00 -1°C° 0.2 mm 1 mps 602 mmHg 79%
    15:00 -2°C° 0.2 mm 1 mps 602 mmHg 81%
    16:00 -2°C° 0.2 mm 1 mps 602 mmHg 83%
    17:00 -3°C° 0.2 mm 1 mps 602 mmHg 86%
    18:00 -3°C° 0.2 mm 1 mps 602 mmHg 88%
    19:00 -4°C° 0.1 mm 0 mps 602 mmHg 88%
    20:00 -4°C° 0.1 mm 0 mps 602 mmHg 88%
    21:00 -4°C° 0.1 mm 0 mps 602 mmHg 87%
    22:00 -5°C° 0.1 mm 0 mps 602 mmHg 87%
    23:00 -5°C° 0.1 mm 0 mps 602 mmHg 87%

    19 December, Wednesday

    Time Temperature Precipitation Wind Pressure Humidity
    00:00 -5°C° 0.1 mm 0 mps 602 mmHg 87%
    01:00 -5°C° 0 mm 0 mps 602 mmHg 86%
    02:00 -4°C° 0 mm 1 mps 602 mmHg 86%
    03:00 -4°C° 0 mm 1 mps 602 mmHg 86%
    04:00 -6°C° 0 mm 1 mps 602 mmHg 85%
    05:00 -6°C° 0 mm 1 mps 602 mmHg 84%
    06:00 -6°C° 0 mm 1 mps 602 mmHg 83%
    07:00 -6°C° 0 mm 1 mps 602 mmHg 81%
    08:00 -4°C° 0 mm 1 mps 603 mmHg 78%
    09:00 -4°C° 0 mm 1 mps 603 mmHg 76%
    10:00 -3°C° 0 mm 1 mps 604 mmHg 74%
    11:00 -2°C° 0 mm 1 mps 604 mmHg 73%
    12:00 -1°C° 0 mm 1 mps 604 mmHg 71%
    13:00 -1°C° 0 mm 1 mps 604 mmHg 73%
    14:00 -1°C° 0 mm 1 mps 604 mmHg 74%
    15:00 -2°C° 0 mm 1 mps 604 mmHg 76%
    16:00 -3°C° 0 mm 1 mps 604 mmHg 79%
    17:00 -4°C° 0 mm 1 mps 603 mmHg 81%
    18:00 -6°C° 0 mm 1 mps 603 mmHg 84%
    19:00 -6°C° 0 mm 1 mps 603 mmHg 82%
    20:00 -6°C° 0 mm 1 mps 603 mmHg 80%
    21:00 -7°C° 0 mm 2 mps 604 mmHg 78%
    22:00 -7°C° 0 mm 2 mps 604 mmHg 78%
    23:00 -7°C° 0 mm 2 mps 604 mmHg 78%
    Show more